Year,Month,Day,Hour,Minute,Value (Times are PST for temperature in C)
2013,08,07,00,00,19.10
2013,08,07,00,01,19.10
2013,08,07,00,02,19.10
2013,08,07,00,03,19.10
2013,08,07,00,04,19.10
2013,08,07,00,05,19.10
2013,08,07,00,06,19.10
2013,08,07,00,07,19.10
2013,08,07,00,08,19.10
2013,08,07,00,09,19.00
2013,08,07,00,10,19.00
2013,08,07,00,11,19.00
2013,08,07,00,12,19.00
2013,08,07,00,13,19.00
2013,08,07,00,14,18.90
2013,08,07,00,15,18.90
2013,08,07,00,16,18.90
2013,08,07,00,17,18.90
2013,08,07,00,18,18.90
2013,08,07,00,19,18.90
2013,08,07,00,20,18.90
2013,08,07,00,21,18.90
2013,08,07,00,22,18.90
2013,08,07,00,23,18.90
2013,08,07,00,24,18.90
2013,08,07,00,25,18.90
2013,08,07,00,26,18.90
2013,08,07,00,27,18.90
2013,08,07,00,28,18.90
2013,08,07,00,29,19.00
2013,08,07,00,30,19.00
2013,08,07,00,31,19.00
2013,08,07,00,32,19.00
2013,08,07,00,33,19.00
2013,08,07,00,34,19.00
2013,08,07,00,35,19.00
2013,08,07,00,36,19.10
2013,08,07,00,37,19.10
2013,08,07,00,38,19.10
2013,08,07,00,39,19.10
2013,08,07,00,40,19.10
2013,08,07,00,41,19.10
2013,08,07,00,42,19.10
2013,08,07,00,43,19.10
2013,08,07,00,44,19.10
2013,08,07,00,45,19.10
2013,08,07,00,46,19.10
2013,08,07,00,47,19.10
2013,08,07,00,48,19.10
2013,08,07,00,49,19.10
2013,08,07,00,50,19.10
2013,08,07,00,51,19.10
2013,08,07,00,52,19.10
2013,08,07,00,53,19.10
2013,08,07,00,54,19.10
2013,08,07,00,55,19.10
2013,08,07,00,56,19.10
2013,08,07,00,57,19.00
2013,08,07,00,58,19.00
2013,08,07,00,59,19.00
2013,08,07,01,00,18.90
2013,08,07,01,01,18.90
2013,08,07,01,02,18.90
2013,08,07,01,03,18.90
2013,08,07,01,04,18.80
2013,08,07,01,05,18.80
2013,08,07,01,06,18.80
2013,08,07,01,07,18.80
2013,08,07,01,08,18.80
2013,08,07,01,09,18.80
2013,08,07,01,10,18.70
2013,08,07,01,11,18.70
2013,08,07,01,12,18.70
2013,08,07,01,13,18.60
2013,08,07,01,14,18.60
2013,08,07,01,15,18.60
2013,08,07,01,16,18.60
2013,08,07,01,17,18.60
2013,08,07,01,18,18.60
2013,08,07,01,19,18.60
2013,08,07,01,20,18.70
2013,08,07,01,21,18.60
2013,08,07,01,22,18.60
2013,08,07,01,23,18.60
2013,08,07,01,24,18.60
2013,08,07,01,25,18.60
2013,08,07,01,26,18.60
2013,08,07,01,27,18.60
2013,08,07,01,28,18.60
2013,08,07,01,29,18.60
2013,08,07,01,30,18.60
2013,08,07,01,31,18.60
2013,08,07,01,32,18.60
2013,08,07,01,33,18.60
2013,08,07,01,34,18.60
2013,08,07,01,35,18.60
2013,08,07,01,36,18.60
2013,08,07,01,37,18.60
2013,08,07,01,38,18.60
2013,08,07,01,39,18.60
2013,08,07,01,40,18.60
2013,08,07,01,41,18.60
2013,08,07,01,42,18.60
2013,08,07,01,43,18.60
2013,08,07,01,44,18.60
2013,08,07,01,45,18.70
2013,08,07,01,46,18.70
2013,08,07,01,47,18.80
2013,08,07,01,48,18.80
2013,08,07,01,49,18.90
2013,08,07,01,50,18.90
2013,08,07,01,51,19.00
2013,08,07,01,52,19.00
2013,08,07,01,53,19.00
2013,08,07,01,54,19.00
2013,08,07,01,55,19.00
2013,08,07,01,56,19.10
2013,08,07,01,57,19.10
2013,08,07,01,58,19.10
2013,08,07,01,59,19.10
2013,08,07,02,00,19.10
2013,08,07,02,01,19.10
2013,08,07,02,02,19.10
2013,08,07,02,03,19.10
2013,08,07,02,04,19.10
2013,08,07,02,05,19.10
2013,08,07,02,06,19.10
2013,08,07,02,07,19.10
2013,08,07,02,08,19.10
2013,08,07,02,09,19.10
2013,08,07,02,10,19.10
2013,08,07,02,11,19.10
2013,08,07,02,12,19.10
2013,08,07,02,13,19.00
2013,08,07,02,14,19.00
2013,08,07,02,15,18.90
2013,08,07,02,16,18.90
2013,08,07,02,17,18.80
2013,08,07,02,18,18.80
2013,08,07,02,19,18.80
2013,08,07,02,20,18.70
2013,08,07,02,21,18.70
2013,08,07,02,22,18.70
2013,08,07,02,23,18.70
2013,08,07,02,24,18.60
2013,08,07,02,25,18.60
2013,08,07,02,26,18.60
2013,08,07,02,27,18.50
2013,08,07,02,28,18.50
2013,08,07,02,29,18.40
2013,08,07,02,30,18.40
2013,08,07,02,31,18.40
2013,08,07,02,32,18.40
2013,08,07,02,33,18.40
2013,08,07,02,34,18.30
2013,08,07,02,35,18.30
2013,08,07,02,36,18.30
2013,08,07,02,37,18.30
2013,08,07,02,38,18.30
2013,08,07,02,39,18.30
2013,08,07,02,40,18.30
2013,08,07,02,41,18.30
2013,08,07,02,42,18.30
2013,08,07,02,43,18.30
2013,08,07,02,44,18.30
2013,08,07,02,45,18.30
2013,08,07,02,46,18.20
2013,08,07,02,47,18.20
2013,08,07,02,48,18.20
2013,08,07,02,49,18.10
2013,08,07,02,50,18.10
2013,08,07,02,51,18.10
2013,08,07,02,52,18.10
2013,08,07,02,53,18.00
2013,08,07,02,54,18.00
2013,08,07,02,55,18.00
2013,08,07,02,56,18.00
2013,08,07,02,57,18.00
2013,08,07,02,58,18.00
2013,08,07,02,59,18.00
2013,08,07,03,00,18.00
2013,08,07,03,01,18.00
2013,08,07,03,02,17.90
2013,08,07,03,06,17.90
2013,08,07,03,07,17.90
2013,08,07,03,08,17.90
2013,08,07,03,09,17.90
2013,08,07,03,10,17.90
2013,08,07,03,11,17.90
2013,08,07,03,12,17.90
2013,08,07,03,13,17.90
2013,08,07,03,14,17.90
2013,08,07,03,15,18.00
2013,08,07,03,16,18.00
2013,08,07,03,17,18.00
2013,08,07,03,18,18.00
2013,08,07,03,19,18.00
2013,08,07,03,20,18.00
2013,08,07,03,21,18.00
2013,08,07,03,22,18.00
2013,08,07,03,23,18.00
2013,08,07,03,24,18.00
2013,08,07,03,25,17.90
2013,08,07,03,26,17.90
2013,08,07,03,27,17.90
2013,08,07,03,28,17.90
2013,08,07,03,29,17.90
2013,08,07,03,30,17.90
2013,08,07,03,31,17.90
2013,08,07,03,32,17.90
2013,08,07,03,33,17.90
2013,08,07,03,34,17.90
2013,08,07,03,35,17.90
2013,08,07,03,36,17.90
2013,08,07,03,37,17.90
2013,08,07,03,38,17.80
2013,08,07,03,39,17.80
2013,08,07,03,40,17.80
2013,08,07,03,41,17.80
2013,08,07,03,42,17.80
2013,08,07,03,43,17.80
2013,08,07,03,44,17.80
2013,08,07,03,45,17.80
2013,08,07,03,46,17.80
2013,08,07,03,47,17.80
2013,08,07,03,48,17.80
2013,08,07,03,49,17.80
2013,08,07,03,50,17.80
2013,08,07,03,51,17.70
2013,08,07,03,52,17.70
2013,08,07,03,53,17.70
2013,08,07,03,54,17.70
2013,08,07,03,55,17.70
2013,08,07,03,56,17.70
2013,08,07,03,57,17.70
2013,08,07,03,58,17.60
2013,08,07,03,59,17.60
2013,08,07,04,00,17.60
2013,08,07,04,01,17.60
2013,08,07,04,02,17.60
2013,08,07,04,03,17.60
2013,08,07,04,04,17.60
2013,08,07,04,05,17.60
2013,08,07,04,06,17.60
2013,08,07,04,07,17.60
2013,08,07,04,08,17.60
2013,08,07,04,09,17.60
2013,08,07,04,10,17.60
2013,08,07,04,11,17.60
2013,08,07,04,12,17.60
2013,08,07,04,13,17.50
2013,08,07,04,14,17.50
2013,08,07,04,15,17.50
2013,08,07,04,16,17.50
2013,08,07,04,17,17.50
2013,08,07,04,18,17.50
2013,08,07,04,19,17.50
2013,08,07,04,20,17.60
2013,08,07,04,21,17.60
2013,08,07,04,22,17.70
2013,08,07,04,23,17.70
2013,08,07,04,24,17.80
2013,08,07,04,25,17.80
2013,08,07,04,26,17.90
2013,08,07,04,27,17.90
2013,08,07,04,28,18.00
2013,08,07,04,29,18.00
2013,08,07,04,30,18.00
2013,08,07,04,31,18.00
2013,08,07,04,32,18.00
2013,08,07,04,33,18.00
2013,08,07,04,34,17.90
2013,08,07,04,35,18.00
2013,08,07,04,36,18.00
2013,08,07,04,37,18.00
2013,08,07,04,38,18.00
2013,08,07,04,39,18.00
2013,08,07,04,40,18.00
2013,08,07,04,41,18.00
2013,08,07,04,42,18.00
2013,08,07,04,43,18.00
2013,08,07,04,44,17.90
2013,08,07,04,45,17.90
2013,08,07,04,46,17.90
2013,08,07,04,47,17.90
2013,08,07,04,48,17.90
2013,08,07,04,49,17.90
2013,08,07,04,50,17.80
2013,08,07,04,51,17.80
2013,08,07,04,52,17.80
2013,08,07,04,53,17.80
2013,08,07,04,54,17.80
2013,08,07,04,55,17.80
2013,08,07,04,56,17.80
2013,08,07,04,57,17.80
2013,08,07,04,58,17.70
2013,08,07,04,59,17.70
2013,08,07,05,00,17.70
2013,08,07,05,01,17.70
2013,08,07,05,02,17.70
2013,08,07,05,03,17.70
2013,08,07,05,04,17.70
2013,08,07,05,05,17.70
2013,08,07,05,06,17.70
2013,08,07,05,07,17.60
2013,08,07,05,08,17.60
2013,08,07,05,09,17.60
2013,08,07,05,10,17.60
2013,08,07,05,11,17.70
2013,08,07,05,12,17.70
2013,08,07,05,13,17.60
2013,08,07,05,14,17.60
2013,08,07,05,15,17.60
2013,08,07,05,16,17.60
2013,08,07,05,17,17.60
2013,08,07,05,18,17.60
2013,08,07,05,19,17.60
2013,08,07,05,20,17.60
2013,08,07,05,21,17.60
2013,08,07,05,22,17.60
2013,08,07,05,23,17.60
2013,08,07,05,24,17.60
2013,08,07,05,25,17.60
2013,08,07,05,26,17.60
2013,08,07,05,27,17.60
2013,08,07,05,28,17.60
2013,08,07,05,29,17.60
2013,08,07,05,30,17.60
2013,08,07,05,31,17.60
2013,08,07,05,32,17.60
2013,08,07,05,33,17.60
2013,08,07,05,34,17.60
2013,08,07,05,35,17.50
2013,08,07,05,36,17.50
2013,08,07,05,37,17.50
2013,08,07,05,38,17.50
2013,08,07,05,39,17.50
2013,08,07,05,40,17.50
2013,08,07,05,41,17.50
2013,08,07,05,42,17.50
2013,08,07,05,43,17.50
2013,08,07,05,44,17.50
2013,08,07,05,45,17.50
2013,08,07,05,46,17.50
2013,08,07,05,47,17.50
2013,08,07,05,48,17.50
2013,08,07,05,49,17.50
2013,08,07,05,50,17.50
2013,08,07,05,51,17.50
2013,08,07,05,52,17.50
2013,08,07,05,53,17.50
2013,08,07,05,54,17.60
2013,08,07,05,55,17.60
2013,08,07,05,56,17.60
2013,08,07,05,57,17.60
2013,08,07,05,58,17.60
2013,08,07,05,59,17.60
2013,08,07,06,00,17.60
2013,08,07,06,01,17.60
2013,08,07,06,02,17.50
2013,08,07,06,03,17.50
2013,08,07,06,04,17.50
2013,08,07,06,05,17.40
2013,08,07,06,06,17.40
2013,08,07,06,07,17.40
2013,08,07,06,08,17.40
2013,08,07,06,09,17.30
2013,08,07,06,10,17.30
2013,08,07,06,11,17.30
2013,08,07,06,12,17.30
2013,08,07,06,13,17.30
2013,08,07,06,14,17.30
2013,08,07,06,15,17.30
2013,08,07,06,16,17.30
2013,08,07,06,17,17.30
2013,08,07,06,18,17.30
2013,08,07,06,19,17.30
2013,08,07,06,20,17.30
2013,08,07,06,21,17.30
2013,08,07,06,22,17.30
2013,08,07,06,23,17.40
2013,08,07,06,24,17.40
2013,08,07,06,25,17.40
2013,08,07,06,26,17.50
2013,08,07,06,27,17.50
2013,08,07,06,28,17.60
2013,08,07,06,29,17.60
2013,08,07,06,30,17.70
2013,08,07,06,31,17.70
2013,08,07,06,32,17.80
2013,08,07,06,33,17.80
2013,08,07,06,34,17.80
2013,08,07,06,35,17.90
2013,08,07,06,36,18.00
2013,08,07,06,37,18.00
2013,08,07,06,38,18.10
2013,08,07,06,39,18.10
2013,08,07,06,40,18.20
2013,08,07,06,41,18.20
2013,08,07,06,42,18.30
2013,08,07,06,43,18.30
2013,08,07,06,44,18.30
2013,08,07,06,45,18.40
2013,08,07,06,46,18.40
2013,08,07,06,47,18.40
2013,08,07,06,48,18.40
2013,08,07,06,49,18.50
2013,08,07,06,50,18.50
2013,08,07,06,51,18.50
2013,08,07,06,52,18.50
2013,08,07,06,53,18.60
2013,08,07,06,54,18.60
2013,08,07,06,55,18.60
2013,08,07,06,56,18.70
2013,08,07,06,57,18.70
2013,08,07,06,58,18.80
2013,08,07,06,59,18.80
2013,08,07,07,00,18.90
2013,08,07,07,01,18.90
2013,08,07,07,02,19.00
2013,08,07,07,03,19.00
2013,08,07,07,04,19.10
2013,08,07,07,05,19.20
2013,08,07,07,06,19.20
2013,08,07,07,07,19.20
2013,08,07,07,08,19.30
2013,08,07,07,09,19.40
2013,08,07,07,10,19.40
2013,08,07,07,11,19.50
2013,08,07,07,12,19.60
2013,08,07,07,13,19.70
2013,08,07,07,14,19.70
2013,08,07,07,15,19.70
2013,08,07,07,16,19.70
2013,08,07,07,17,19.80
2013,08,07,07,18,19.80
2013,08,07,07,19,19.80
2013,08,07,07,20,19.90
2013,08,07,07,21,19.90
2013,08,07,07,22,19.90
2013,08,07,07,23,20.00
2013,08,07,07,24,20.00
2013,08,07,07,25,20.10
2013,08,07,07,26,20.10
2013,08,07,07,27,20.20
2013,08,07,07,28,20.20
2013,08,07,07,29,20.20
2013,08,07,07,30,20.30
2013,08,07,07,31,20.40
2013,08,07,07,32,20.50
2013,08,07,07,33,20.60
2013,08,07,07,34,20.70
2013,08,07,07,35,20.80
2013,08,07,07,36,20.90
2013,08,07,07,37,20.90
2013,08,07,07,38,21.00
2013,08,07,07,39,21.10
2013,08,07,07,40,21.20
2013,08,07,07,41,21.20
2013,08,07,07,42,21.20
2013,08,07,07,43,21.30
2013,08,07,07,44,21.30
2013,08,07,07,45,21.30
2013,08,07,07,46,21.30
2013,08,07,07,47,21.30
2013,08,07,07,48,21.40
2013,08,07,07,49,21.40
2013,08,07,07,50,21.50
2013,08,07,07,51,21.50
2013,08,07,07,52,21.60
2013,08,07,07,53,21.60
2013,08,07,07,54,21.60
2013,08,07,07,55,21.70
2013,08,07,07,56,21.70
2013,08,07,07,57,21.80
2013,08,07,07,58,21.80
2013,08,07,07,59,21.90
2013,08,07,08,00,21.90
2013,08,07,08,01,22.00
2013,08,07,08,02,22.00
2013,08,07,08,03,22.10
2013,08,07,08,04,22.10
2013,08,07,08,05,22.10
2013,08,07,08,06,22.10
2013,08,07,08,07,22.10
2013,08,07,08,08,22.10
2013,08,07,08,09,22.10
2013,08,07,08,10,22.10
2013,08,07,08,11,22.10
2013,08,07,08,12,22.20
2013,08,07,08,13,22.20
2013,08,07,08,14,22.20
2013,08,07,08,15,22.30
2013,08,07,08,16,22.30
2013,08,07,08,17,22.40
2013,08,07,08,18,22.40
2013,08,07,08,19,22.40
2013,08,07,08,20,22.30
2013,08,07,08,21,22.30
2013,08,07,08,22,22.30
2013,08,07,08,23,22.40
2013,08,07,08,24,22.40
2013,08,07,08,25,22.30
2013,08,07,08,26,22.30
2013,08,07,08,27,22.30
2013,08,07,08,28,22.20
2013,08,07,08,29,22.20
2013,08,07,08,30,22.20
2013,08,07,08,31,22.10
2013,08,07,08,32,22.10
2013,08,07,08,33,22.00
2013,08,07,08,34,22.00
2013,08,07,08,35,22.00
2013,08,07,08,36,21.90
2013,08,07,08,37,21.90
2013,08,07,08,38,21.90
2013,08,07,08,39,21.90
2013,08,07,08,40,21.90
2013,08,07,08,41,21.90
2013,08,07,08,42,21.90
2013,08,07,08,43,21.90
2013,08,07,08,44,21.90
2013,08,07,08,45,21.90
2013,08,07,08,46,21.80
2013,08,07,08,47,21.90
2013,08,07,08,48,21.90
2013,08,07,08,49,21.80
2013,08,07,08,50,21.80
2013,08,07,08,51,21.80
2013,08,07,08,52,21.80
2013,08,07,08,53,21.80
2013,08,07,08,54,21.70
2013,08,07,08,55,21.70
2013,08,07,08,56,21.80
2013,08,07,08,57,21.80
2013,08,07,08,58,21.90
2013,08,07,08,59,21.90
2013,08,07,09,00,22.00
2013,08,07,09,01,22.10
2013,08,07,09,02,22.20
2013,08,07,09,03,22.20
2013,08,07,09,04,22.20
2013,08,07,09,05,22.30
2013,08,07,09,06,22.30
2013,08,07,09,07,22.30
2013,08,07,09,08,22.30
2013,08,07,09,09,22.30
2013,08,07,09,10,22.30
2013,08,07,09,11,22.40
2013,08,07,09,12,22.30
2013,08,07,09,13,22.30
2013,08,07,09,14,22.30
2013,08,07,09,15,22.20
2013,08,07,09,16,22.10
2013,08,07,09,17,22.10
2013,08,07,09,18,22.10
2013,08,07,09,19,22.00
2013,08,07,09,20,22.10
2013,08,07,09,21,22.10
2013,08,07,09,22,22.10
2013,08,07,09,23,22.10
2013,08,07,09,24,22.10
2013,08,07,09,25,22.10
2013,08,07,09,26,22.10
2013,08,07,09,27,22.00
2013,08,07,09,28,22.00
2013,08,07,09,29,21.90
2013,08,07,09,30,21.90
2013,08,07,09,31,21.90
2013,08,07,09,32,22.00
2013,08,07,09,33,22.00
2013,08,07,09,34,22.10
2013,08,07,09,35,22.00
2013,08,07,09,36,22.00
2013,08,07,09,37,21.90
2013,08,07,09,38,21.90
2013,08,07,09,39,21.90
2013,08,07,09,40,21.80
2013,08,07,09,41,21.80
2013,08,07,09,42,21.90
2013,08,07,09,43,21.90
2013,08,07,09,44,21.90
2013,08,07,09,45,22.00
2013,08,07,09,46,22.00
2013,08,07,09,47,22.00
2013,08,07,09,48,22.10
2013,08,07,09,49,22.10
2013,08,07,09,50,22.00
2013,08,07,09,51,22.00
2013,08,07,09,52,22.00
2013,08,07,09,53,22.10
2013,08,07,09,54,22.10
2013,08,07,09,55,22.20
2013,08,07,09,56,22.10
2013,08,07,09,57,22.10
2013,08,07,09,58,22.20
2013,08,07,09,59,22.20
2013,08,07,10,00,22.20
2013,08,07,10,01,22.30
2013,08,07,10,02,22.30
2013,08,07,10,03,22.30
2013,08,07,10,04,22.40
2013,08,07,10,05,22.40
2013,08,07,10,06,22.50
2013,08,07,10,07,22.50
2013,08,07,10,08,22.60
2013,08,07,10,09,22.70
2013,08,07,10,10,22.70
2013,08,07,10,11,22.90
2013,08,07,10,12,22.90
2013,08,07,10,13,23.00
2013,08,07,10,14,23.10
2013,08,07,10,15,23.20
2013,08,07,10,16,23.30
2013,08,07,10,17,23.40
2013,08,07,10,18,23.50
2013,08,07,10,19,23.60
2013,08,07,10,20,23.70
2013,08,07,10,21,23.70
2013,08,07,10,22,23.70
2013,08,07,10,23,23.60
2013,08,07,10,24,23.60
2013,08,07,10,25,23.50
2013,08,07,10,26,23.40
2013,08,07,10,27,23.40
2013,08,07,10,28,23.40
2013,08,07,10,29,23.40
2013,08,07,10,30,23.50
2013,08,07,10,31,23.50
2013,08,07,10,32,23.50
2013,08,07,10,33,23.30
2013,08,07,10,34,23.20
2013,08,07,10,35,23.10
2013,08,07,10,36,23.00
2013,08,07,10,37,22.90
2013,08,07,10,38,22.80
2013,08,07,10,39,22.70
2013,08,07,10,40,22.60
2013,08,07,10,41,22.50
2013,08,07,10,42,22.40
2013,08,07,10,43,22.30
2013,08,07,10,44,22.30
2013,08,07,10,45,22.40
2013,08,07,10,46,22.40
2013,08,07,10,47,22.40
2013,08,07,10,48,22.50
2013,08,07,10,49,22.50
2013,08,07,10,50,22.60
2013,08,07,10,51,22.60
2013,08,07,10,52,22.70
2013,08,07,10,53,22.70
2013,08,07,10,54,22.70
2013,08,07,10,55,22.60
2013,08,07,10,56,22.60
2013,08,07,10,57,22.60
2013,08,07,10,58,22.60
2013,08,07,10,59,22.50
2013,08,07,11,00,22.50
2013,08,07,11,01,22.50
2013,08,07,11,02,22.40
2013,08,07,11,03,22.40
2013,08,07,11,04,22.40
2013,08,07,11,05,22.30
2013,08,07,11,06,22.30
2013,08,07,11,07,22.30
2013,08,07,11,08,22.30
2013,08,07,11,09,22.20
2013,08,07,11,10,22.30
2013,08,07,11,11,22.30
2013,08,07,11,12,22.40
2013,08,07,11,13,22.50
2013,08,07,11,14,22.70
2013,08,07,11,15,22.80
2013,08,07,11,16,22.80
2013,08,07,11,17,22.90
2013,08,07,11,18,22.90
2013,08,07,11,19,23.00
2013,08,07,11,20,23.00
2013,08,07,11,21,23.10
2013,08,07,11,22,23.10
2013,08,07,11,23,23.10
2013,08,07,11,24,23.00
2013,08,07,11,25,22.90
2013,08,07,11,26,22.80
2013,08,07,11,27,22.80
2013,08,07,11,28,22.80
2013,08,07,11,29,22.90
2013,08,07,11,30,22.90
2013,08,07,11,31,23.00
2013,08,07,11,32,23.10
2013,08,07,11,33,23.00
2013,08,07,11,34,23.00
2013,08,07,11,35,23.00
2013,08,07,11,36,23.00
2013,08,07,11,37,23.00
2013,08,07,11,38,23.00
2013,08,07,11,39,22.90
2013,08,07,11,40,22.90
2013,08,07,11,41,22.90
2013,08,07,11,42,22.90
2013,08,07,11,43,22.80
2013,08,07,11,44,22.80
2013,08,07,11,45,22.80
2013,08,07,11,46,22.80
2013,08,07,11,47,22.80
2013,08,07,11,48,22.90
2013,08,07,11,49,22.90
2013,08,07,11,50,22.90
2013,08,07,11,51,22.90
2013,08,07,11,52,22.90
2013,08,07,11,53,22.90
2013,08,07,11,54,22.90
2013,08,07,11,55,22.90
2013,08,07,11,56,22.90
2013,08,07,11,57,23.00
2013,08,07,11,58,23.00
2013,08,07,11,59,23.10
2013,08,07,12,00,23.10
2013,08,07,12,01,23.10
2013,08,07,12,02,23.10
2013,08,07,12,03,23.20
2013,08,07,12,04,23.20
2013,08,07,12,05,23.20
2013,08,07,12,06,23.30
2013,08,07,12,07,23.30
2013,08,07,12,08,23.20
2013,08,07,12,09,23.20
2013,08,07,12,10,23.20
2013,08,07,12,11,23.20
2013,08,07,12,12,23.30
2013,08,07,12,13,23.20
2013,08,07,12,14,23.20
2013,08,07,12,15,23.20
2013,08,07,12,16,23.30
2013,08,07,12,17,23.30
2013,08,07,12,18,23.40
2013,08,07,12,19,23.40
2013,08,07,12,20,23.40
2013,08,07,12,21,23.40
2013,08,07,12,22,23.30
2013,08,07,12,23,23.30
2013,08,07,12,24,23.30
2013,08,07,12,25,23.30
2013,08,07,12,26,23.30
2013,08,07,12,27,23.30
2013,08,07,12,28,23.30
2013,08,07,12,29,23.30
2013,08,07,12,30,23.30
2013,08,07,12,31,23.30
2013,08,07,12,32,23.30
2013,08,07,12,33,23.30
2013,08,07,12,34,23.30
2013,08,07,12,35,23.40
2013,08,07,12,36,23.40
2013,08,07,12,37,23.40
2013,08,07,12,38,23.50
2013,08,07,12,39,23.50
2013,08,07,12,40,23.40
2013,08,07,12,41,23.40
2013,08,07,12,42,23.40
2013,08,07,12,43,23.30
2013,08,07,12,44,23.30
2013,08,07,12,45,23.30
2013,08,07,12,46,23.30
2013,08,07,12,47,23.40
2013,08,07,12,48,23.50
2013,08,07,12,49,23.60
2013,08,07,12,50,23.70
2013,08,07,12,51,23.70
2013,08,07,12,52,23.80
2013,08,07,12,53,23.80
2013,08,07,12,54,23.80
2013,08,07,12,55,23.80
2013,08,07,12,56,23.80
2013,08,07,12,57,23.80
2013,08,07,12,58,23.80
2013,08,07,12,59,23.80
2013,08,07,13,00,23.80
2013,08,07,13,01,23.80
2013,08,07,13,02,23.70
2013,08,07,13,03,23.60
2013,08,07,13,04,23.60
2013,08,07,13,05,23.60
2013,08,07,13,06,23.60
2013,08,07,13,07,23.60
2013,08,07,13,08,23.60
2013,08,07,13,09,23.70
2013,08,07,13,10,23.80
2013,08,07,13,11,23.80
2013,08,07,13,12,23.80
2013,08,07,13,13,23.80
2013,08,07,13,14,23.80
2013,08,07,13,15,23.70
2013,08,07,13,16,23.70
2013,08,07,13,17,23.70
2013,08,07,13,18,23.70
2013,08,07,13,19,23.70
2013,08,07,13,20,23.70
2013,08,07,13,21,23.70
2013,08,07,13,22,23.70
2013,08,07,13,23,23.70
2013,08,07,13,24,23.70
2013,08,07,13,25,23.60
2013,08,07,13,26,23.60
2013,08,07,13,27,23.50
2013,08,07,13,28,23.30
2013,08,07,13,29,23.20
2013,08,07,13,30,23.20
2013,08,07,13,31,23.10
2013,08,07,13,32,23.00
2013,08,07,13,33,23.00
2013,08,07,13,34,22.90
2013,08,07,13,35,22.90
2013,08,07,13,36,22.80
2013,08,07,13,37,22.70
2013,08,07,13,38,22.70
2013,08,07,13,39,22.60
2013,08,07,13,40,22.60
2013,08,07,13,41,22.70
2013,08,07,13,42,22.70
2013,08,07,13,43,22.80
2013,08,07,13,44,22.80
2013,08,07,13,45,22.90
2013,08,07,13,46,22.90
2013,08,07,13,47,22.90
2013,08,07,13,48,23.00
2013,08,07,13,49,23.10
2013,08,07,13,50,23.30
2013,08,07,13,51,23.40
2013,08,07,13,52,23.50
2013,08,07,13,53,23.60
2013,08,07,13,54,23.60
2013,08,07,13,55,23.70
2013,08,07,13,56,23.70
2013,08,07,13,57,23.80
2013,08,07,13,58,23.90
2013,08,07,13,59,24.10
2013,08,07,14,00,24.20
2013,08,07,14,01,24.20
2013,08,07,14,02,24.20
2013,08,07,14,03,24.20
2013,08,07,14,04,24.20
2013,08,07,14,05,24.20
2013,08,07,14,06,24.10
2013,08,07,14,07,24.10
2013,08,07,14,08,24.10
2013,08,07,14,09,24.00
2013,08,07,14,10,24.00
2013,08,07,14,11,23.90
2013,08,07,14,12,23.90
2013,08,07,14,13,23.90
2013,08,07,14,14,23.90
2013,08,07,14,15,23.90
2013,08,07,14,16,24.00
2013,08,07,14,17,24.10
2013,08,07,14,18,24.10
2013,08,07,14,19,24.30
2013,08,07,14,20,24.30
2013,08,07,14,21,24.40
2013,08,07,14,22,24.30
2013,08,07,14,23,24.30
2013,08,07,14,24,24.20
2013,08,07,14,25,24.20
2013,08,07,14,26,24.30
2013,08,07,14,27,24.30
2013,08,07,14,28,24.40
2013,08,07,14,29,24.40
2013,08,07,14,30,24.40
2013,08,07,14,31,24.40
2013,08,07,14,32,24.30
2013,08,07,14,33,24.30
2013,08,07,14,34,24.30
2013,08,07,14,35,24.30
2013,08,07,14,36,24.30
2013,08,07,14,37,24.20
2013,08,07,14,38,24.20
2013,08,07,14,39,24.10
2013,08,07,14,40,24.00
2013,08,07,14,41,23.90
2013,08,07,14,42,23.90
2013,08,07,14,43,23.90
2013,08,07,14,44,23.90
2013,08,07,14,45,24.00
2013,08,07,14,46,24.10
2013,08,07,14,47,24.00
2013,08,07,14,48,23.90
2013,08,07,14,49,23.80
2013,08,07,14,50,23.70
2013,08,07,14,51,23.50
2013,08,07,14,52,23.40
2013,08,07,14,53,23.40
2013,08,07,14,54,23.50
2013,08,07,14,55,23.50
2013,08,07,14,56,23.50
2013,08,07,14,57,23.30
2013,08,07,14,58,23.20
2013,08,07,14,59,23.10
2013,08,07,15,00,23.00
2013,08,07,15,01,23.00
2013,08,07,15,02,22.90
2013,08,07,15,03,22.90
2013,08,07,15,04,22.90
2013,08,07,15,05,22.90
2013,08,07,15,06,22.90
2013,08,07,15,07,23.00
2013,08,07,15,08,23.20
2013,08,07,15,09,23.30
2013,08,07,15,10,23.50
2013,08,07,15,11,23.60
2013,08,07,15,12,23.70
2013,08,07,15,13,23.90
2013,08,07,15,14,24.00
2013,08,07,15,15,24.10
2013,08,07,15,16,24.20
2013,08,07,15,17,24.10
2013,08,07,15,18,24.00
2013,08,07,15,19,23.90
2013,08,07,15,20,23.80
2013,08,07,15,21,23.70
2013,08,07,15,22,23.60
2013,08,07,15,23,23.50
2013,08,07,15,24,23.50
2013,08,07,15,25,23.50
2013,08,07,15,26,23.60
2013,08,07,15,27,23.70
2013,08,07,15,28,23.90
2013,08,07,15,29,24.00
2013,08,07,15,30,24.10
2013,08,07,15,31,24.20
2013,08,07,15,32,24.30
2013,08,07,15,33,24.30
2013,08,07,15,34,24.30
2013,08,07,15,35,24.40
2013,08,07,15,36,24.50
2013,08,07,15,37,24.60
2013,08,07,15,38,24.70
2013,08,07,15,39,24.80
2013,08,07,15,40,24.90
2013,08,07,15,41,25.00
2013,08,07,15,42,25.20
2013,08,07,15,43,25.30
2013,08,07,15,44,25.40
2013,08,07,15,45,25.50
2013,08,07,15,46,25.60
2013,08,07,15,47,25.60
2013,08,07,15,48,25.60
2013,08,07,15,49,25.50
2013,08,07,15,50,25.50
2013,08,07,15,51,25.40
2013,08,07,15,52,25.50
2013,08,07,15,53,25.50
2013,08,07,15,54,25.50
2013,08,07,15,55,25.50
2013,08,07,15,56,25.50
2013,08,07,15,57,25.40
2013,08,07,15,58,25.40
2013,08,07,15,59,25.40
2013,08,07,16,00,25.50
2013,08,07,16,01,25.50
2013,08,07,16,02,25.60
2013,08,07,16,03,25.60
2013,08,07,16,04,25.70
2013,08,07,16,05,25.70
2013,08,07,16,06,25.70
2013,08,07,16,07,25.80
2013,08,07,16,08,25.80
2013,08,07,16,09,25.80
2013,08,07,16,10,25.80
2013,08,07,16,11,25.90
2013,08,07,16,12,25.90
2013,08,07,16,13,26.00
2013,08,07,16,14,26.00
2013,08,07,16,15,26.00
2013,08,07,16,16,25.90
2013,08,07,16,17,25.70
2013,08,07,16,18,25.50
2013,08,07,16,19,25.30
2013,08,07,16,20,25.20
2013,08,07,16,21,25.20
2013,08,07,16,22,25.20
2013,08,07,16,23,25.10
2013,08,07,16,24,25.20
2013,08,07,16,25,25.20
2013,08,07,16,26,25.30
2013,08,07,16,27,25.30
2013,08,07,16,28,25.20
2013,08,07,16,29,25.00
2013,08,07,16,30,24.90
2013,08,07,16,31,24.80
2013,08,07,16,32,24.70
2013,08,07,16,33,24.80
2013,08,07,16,34,24.80
2013,08,07,16,35,24.90
2013,08,07,16,36,25.00
2013,08,07,16,37,25.00
2013,08,07,16,38,25.10
2013,08,07,16,39,25.00
2013,08,07,16,40,24.90
2013,08,07,16,41,24.80
2013,08,07,16,42,24.70
2013,08,07,16,43,24.70
2013,08,07,16,44,24.60
2013,08,07,16,45,24.50
2013,08,07,16,46,24.40
2013,08,07,16,47,24.20
2013,08,07,16,48,24.10
2013,08,07,16,49,24.00
2013,08,07,16,50,23.90
2013,08,07,16,51,23.90
2013,08,07,16,52,24.00
2013,08,07,16,53,24.10
2013,08,07,16,54,24.20
2013,08,07,16,55,24.30
2013,08,07,16,56,24.50
2013,08,07,16,57,24.70
2013,08,07,16,58,24.80
2013,08,07,16,59,25.00
2013,08,07,17,00,25.10
2013,08,07,17,01,25.30
2013,08,07,17,02,25.40
2013,08,07,17,03,25.50
2013,08,07,17,04,25.60
2013,08,07,17,05,25.80
2013,08,07,17,06,25.80
2013,08,07,17,07,25.80
2013,08,07,17,08,25.70
2013,08,07,17,09,25.70
2013,08,07,17,10,25.70
2013,08,07,17,11,25.70
2013,08,07,17,12,25.70
2013,08,07,17,13,25.80
2013,08,07,17,14,25.80
2013,08,07,17,15,25.90
2013,08,07,17,16,25.90
2013,08,07,17,17,25.90
2013,08,07,17,18,26.00
2013,08,07,17,19,26.00
2013,08,07,17,20,26.00
2013,08,07,17,21,26.00
2013,08,07,17,22,26.00